| time (UTC) | temp F | wind direction | speed MPH | gust MPH | rain 1hr in | rain 24hr in | rain mn in | humidity % | barometer mb |
| 20260505152855 | 77 | 0 | 1.0 | 2.0 | 0.00 | 0.00 | 0.00 | ||
| 20260505152353 | 75 | 276 | 1.0 | 4.0 | 0.00 | 0.00 | 0.00 | ||
| 20260505140349 | 70 | 89 | 2.0 | 2.0 | 0.00 | 0.00 | 0.00 | ||
| 20260505125034 | 65 | 321 | 1.0 | 0.0 | 0.00 | 0.00 | 0.00 | ||
| 20260505124844 | 65 | 321 | 1.0 | 0.0 | 0.00 | 0.00 | 0.00 | ||
| 20260505124342 | 64 | 269 | 0.0 | 0.0 | 0.00 | 0.00 | 0.00 | ||
| 20260505123933 | 64 | 7 | 0.0 | 0.0 | 0.00 | 0.00 | 0.00 | ||
| 20260505123844 | 64 | 7 | 0.0 | 0.0 | 0.00 | 0.00 | 0.00 | ||
| 20260505123342 | 64 | 7 | 0.0 | 0.0 | 0.00 | 0.00 | 0.00 | ||
| 20260505122341 | 63 | 7 | 0.0 | 0.0 | 0.00 | 0.00 | 0.00 | ||
| 20260505121842 | 63 | 7 | 0.0 | 0.0 | 0.00 | 0.00 | 0.00 | ||
| 20260505120842 | 60 | 7 | 0.0 | 0.0 | 0.00 | 0.00 | 0.00 | ||
| 20260505120340 | 59 | 7 | 0.0 | 0.0 | 0.00 | 0.00 | 0.00 | ||
| 20260505115841 | 57 | 7 | 0.0 | 0.0 | 0.00 | 0.00 | 0.00 | ||
| 20260505115339 | 56 | 7 | 0.0 | 0.0 | 0.00 | 0.00 | 0.00 | ||
| 20260505114840 | 56 | 7 | 0.0 | 0.0 | 0.00 | 0.00 | 0.00 | ||
| 20260505114338 | 56 | 7 | 0.0 | 0.0 | 0.00 | 0.00 | 0.00 | ||
| 20260505113337 | 55 | 7 | 0.0 | 0.0 | 0.00 | 0.00 | 0.00 | ||
| 20260505112838 | 55 | 7 | 0.0 | 0.0 | 0.00 | 0.00 | 0.00 | ||
| 20260505112337 | 54 | 7 | 0.0 | 0.0 | 0.00 | 0.00 | 0.00 | ||
| 20260505111838 | 54 | 7 | 0.0 | 0.0 | 0.00 | 0.00 | 0.00 | ||
| 20260505111408 | 54 | 7 | 0.0 | 0.0 | 0.00 | 0.00 | 0.00 | ||
| 20260505111336 | 54 | 7 | 0.0 | 0.0 | 0.00 | 0.00 | 0.00 | ||
| 20260505111012 | 54 | 7 | 0.0 | 0.0 | 0.00 | 0.00 | 0.00 | ||
| 20260505110836 | 54 | 7 | 0.0 | 0.0 | 0.00 | 0.00 | 0.00 | ||
| 20260505110335 | 54 | 7 | 0.0 | 0.0 | 0.00 | 0.00 | 0.00 | ||
| 20260505101834 | 54 | 7 | 0.0 | 0.0 | 0.00 | 0.00 | 0.00 | ||
| 20260505101333 | 53 | 7 | 0.0 | 0.0 | 0.00 | 0.00 | 0.00 | ||
| 20260505101016 | 54 | 7 | 0.0 | 0.0 | 0.00 | 0.00 | 0.00 | ||
| 20260505100834 | 54 | 7 | 0.0 | 0.0 | 0.00 | 0.00 | 0.00 | ||
| 20260505100332 | 53 | 7 | 0.0 | 0.0 | 0.00 | 0.00 | 0.00 | ||
| 20260505095833 | 53 | 7 | 0.0 | 0.0 | 0.00 | 0.00 | 0.00 | ||
| 20260505095446 | 53 | 7 | 0.0 | 0.0 | 0.00 | 0.00 | 0.00 | ||
| 20260505095332 | 53 | 7 | 0.0 | 0.0 | 0.00 | 0.00 | 0.00 | ||
| 20260505094933 | 53 | 7 | 0.0 | 0.0 | 0.00 | 0.00 | 0.00 | ||
| 20260505094833 | 53 | 7 | 0.0 | 0.0 | 0.00 | 0.00 | 0.00 | ||
| 20260505094331 | 53 | 7 | 0.0 | 0.0 | 0.00 | 0.00 | 0.00 | ||
| 20260505093933 | 53 | 7 | 0.0 | 0.0 | 0.00 | 0.00 | 0.00 | ||
| 20260505093833 | 53 | 7 | 0.0 | 0.0 | 0.00 | 0.00 | 0.00 | ||
| 20260505093331 | 54 | 7 | 0.0 | 0.0 | 0.00 | 0.00 | 0.00 | ||
| 20260505092832 | 53 | 7 | 0.0 | 0.0 | 0.00 | 0.00 | 0.00 | ||
| 20260505092331 | 54 | 7 | 0.0 | 0.0 | 0.00 | 0.00 | 0.00 | ||
| 20260505091833 | 54 | 7 | 0.0 | 0.0 | 0.00 | 0.00 | 0.00 | ||
| 20260505091330 | 53 | 7 | 0.0 | 0.0 | 0.00 | 0.00 | 0.00 | ||
| 20260505090832 | 54 | 7 | 0.0 | 0.0 | 0.00 | 0.00 | 0.00 | ||
| 20260505090417 | 54 | 7 | 0.0 | 0.0 | 0.00 | 0.00 | 0.00 | ||
| 20260505090330 | 54 | 7 | 0.0 | 0.0 | 0.00 | 0.00 | 0.00 | ||
| 20260505085831 | 55 | 7 | 0.0 | 0.0 | 0.00 | 0.00 | 0.00 | ||
| 20260505085452 | 54 | 7 | 0.0 | 0.0 | 0.00 | 0.00 | 0.00 | ||
| 20260505085330 | 54 | 7 | 0.0 | 0.0 | 0.00 | 0.00 | 0.00 | ||
| 20260505085002 | 54 | 7 | 0.0 | 0.0 | 0.00 | 0.00 | 0.00 | ||
| 20260505084831 | 54 | 7 | 0.0 | 0.0 | 0.00 | 0.00 | 0.00 | ||
| 20260505083830 | 54 | 7 | 0.0 | 0.0 | 0.00 | 0.00 | 0.00 | ||
| 20260505083329 | 54 | 7 | 0.0 | 0.0 | 0.00 | 0.00 | 0.00 | ||
| 20260505082901 | 55 | 7 | 0.0 | 0.0 | 0.00 | 0.00 | 0.00 | ||
| 20260505082830 | 55 | 7 | 0.0 | 0.0 | 0.00 | 0.00 | 0.00 | ||
| 20260505082329 | 55 | 7 | 0.0 | 0.0 | 0.00 | 0.00 | 0.00 | ||
| 20260505081922 | 55 | 7 | 0.0 | 0.0 | 0.00 | 0.00 | 0.00 | ||
| 20260505081830 | 55 | 7 | 0.0 | 0.0 | 0.00 | 0.00 | 0.00 | ||
| 20260505081518 | 54 | 7 | 0.0 | 0.0 | 0.00 | 0.00 | 0.00 | ||
| 20260505081328 | 54 | 7 | 0.0 | 0.0 | 0.00 | 0.00 | 0.00 | ||
| 20260505080830 | 54 | 7 | 0.0 | 0.0 | 0.00 | 0.00 | 0.00 | ||
| 20260505080328 | 55 | 7 | 0.0 | 0.0 | 0.00 | 0.00 | 0.00 | ||
| 20260505075901 | 55 | 7 | 0.0 | 0.0 | 0.00 | 0.00 | 0.00 | ||
| 20260505075829 | 55 | 7 | 0.0 | 0.0 | 0.00 | 0.00 | 0.00 | ||
| 20260505075532 | 55 | 7 | 0.0 | 0.0 | 0.00 | 0.00 | 0.00 | ||
| 20260505075328 | 55 | 7 | 0.0 | 0.0 | 0.00 | 0.00 | 0.00 | ||
| 20260505074829 | 55 | 7 | 0.0 | 0.0 | 0.00 | 0.00 | 0.00 | ||
| 20260505074005 | 55 | 7 | 0.0 | 0.0 | 0.00 | 0.00 | 0.00 | ||
| 20260505073828 | 55 | 7 | 0.0 | 0.0 | 0.00 | 0.00 | 0.00 | ||
| 20260505073447 | 55 | 7 | 0.0 | 0.0 | 0.00 | 0.00 | 0.00 | ||
| 20260505073327 | 55 | 7 | 0.0 | 0.0 | 0.00 | 0.00 | 0.00 | ||
| 20260505072901 | 54 | 7 | 0.0 | 0.0 | 0.00 | 0.00 | 0.00 | ||
| 20260505072828 | 54 | 7 | 0.0 | 0.0 | 0.00 | 0.00 | 0.00 | ||
| 20260505071827 | 55 | 7 | 0.0 | 0.0 | 0.00 | 0.00 | 0.00 | ||
| 20260505070827 | 54 | 7 | 0.0 | 0.0 | 0.00 | 0.00 | 0.00 | ||
| 20260505070450 | 55 | 7 | 0.0 | 0.0 | 0.00 | 0.00 | 0.00 | ||
| 20260505070325 | 55 | 7 | 0.0 | 0.0 | 0.00 | 0.00 | 0.00 | ||
| 20260505065826 | 55 | 7 | 0.0 | 0.0 | 0.00 | 0.00 | 0.00 | ||
| 20260505065402 | 55 | 7 | 0.0 | 0.0 | 0.00 | 0.00 | 0.00 | ||
| 20260505065325 | 55 | 7 | 0.0 | 0.0 | 0.00 | 0.00 | 0.00 | ||
| 20260505064826 | 55 | 7 | 0.0 | 0.0 | 0.00 | 0.00 | 0.00 | ||
| 20260505063934 | 55 | 7 | 0.0 | 0.0 | 0.00 | 0.00 | 0.00 | ||
| 20260505063825 | 55 | 7 | 0.0 | 0.0 | 0.00 | 0.00 | 0.00 | ||
| 20260505063323 | 55 | 7 | 0.0 | 0.0 | 0.00 | 0.00 | 0.00 | ||
| 20260505062901 | 55 | 7 | 0.0 | 0.0 | 0.00 | 0.00 | 0.00 | ||
| 20260505062824 | 55 | 7 | 0.0 | 0.0 | 0.00 | 0.00 | 0.00 | ||
| 20260505062320 | 55 | 7 | 0.0 | 0.0 | 0.00 | 0.00 | 0.00 | ||
| 20260505062005 | 55 | 7 | 0.0 | 0.0 | 0.00 | 0.00 | 0.00 | ||
| 20260505061821 | 55 | 7 | 0.0 | 0.0 | 0.00 | 0.00 | 0.00 | ||
| 20260505060819 | 55 | 7 | 0.0 | 0.0 | 0.00 | 0.00 | 0.00 | ||
| 20260505060317 | 55 | 7 | 0.0 | 0.0 | 0.00 | 0.00 | 0.00 | ||
| 20260505055819 | 55 | 7 | 0.0 | 0.0 | 0.00 | 0.00 | 0.00 | ||
| 20260505055417 | 55 | 7 | 0.0 | 0.0 | 0.00 | 0.00 | 0.00 | ||
| 20260505055317 | 55 | 7 | 0.0 | 0.0 | 0.00 | 0.00 | 0.00 | ||
| 20260505054818 | 56 | 7 | 0.0 | 0.0 | 0.00 | 0.00 | 0.00 | ||
| 20260505053818 | 55 | 7 | 0.0 | 0.0 | 0.00 | 0.00 | 0.00 | ||
| 20260505053356 | 55 | 7 | 0.0 | 0.0 | 0.00 | 0.00 | 0.00 | ||
| 20260505053316 | 55 | 7 | 0.0 | 0.0 | 0.00 | 0.00 | 0.00 | ||
| 20260505052817 | 55 | 7 | 0.0 | 0.0 | 0.00 | 0.00 | 0.00 | ||
| 20260505052442 | 56 | 7 | 0.0 | 0.0 | 0.00 | 0.00 | 0.00 | ||
| 20260505052316 | 56 | 7 | 0.0 | 0.0 | 0.00 | 0.00 | 0.00 | ||
| 20260505051817 | 56 | 7 | 0.0 | 0.0 | 0.00 | 0.00 | 0.00 | ||
| 20260505051532 | 56 | 7 | 0.0 | 0.0 | 0.00 | 0.00 | 0.00 | ||
| 20260505051315 | 56 | 7 | 0.0 | 0.0 | 0.00 | 0.00 | 0.00 | ||
| 20260505050816 | 56 | 7 | 0.0 | 0.0 | 0.00 | 0.00 | 0.00 | ||
| 20260505041310 | 57 | 7 | 0.0 | 0.0 | 0.00 | 0.00 | 0.00 | ||
| 20260505040811 | 57 | 7 | 0.0 | 0.0 | 0.00 | 0.00 | 0.00 | ||
| 20260505040443 | 57 | 7 | 0.0 | 0.0 | 0.00 | 0.00 | 0.00 | ||
| 20260505040310 | 57 | 7 | 0.0 | 0.0 | 0.00 | 0.00 | 0.00 | ||
| 20260505035811 | 57 | 7 | 0.0 | 0.0 | 0.00 | 0.00 | 0.00 | ||
| 20260505035309 | 57 | 7 | 0.0 | 0.0 | 0.00 | 0.00 | 0.00 | ||
| 20260505034533 | 58 | 7 | 0.0 | 0.0 | 0.00 | 0.00 | 0.00 | ||
| 20260505034307 | 58 | 7 | 0.0 | 0.0 | 0.00 | 0.00 | 0.00 | ||
| 20260505033808 | 58 | 7 | 0.0 | 0.0 | 0.00 | 0.00 | 0.00 | ||
| 20260505033532 | 58 | 7 | 0.0 | 0.0 | 0.00 | 0.00 | 0.00 | ||
| 20260505033306 | 58 | 7 | 0.0 | 0.0 | 0.00 | 0.00 | 0.00 | ||
| 20260505032807 | 58 | 7 | 0.0 | 0.0 | 0.00 | 0.00 | 0.00 | ||
| 20260505031305 | 58 | 7 | 0.0 | 0.0 | 0.00 | 0.00 | 0.00 | ||
| 20260505024303 | 59 | 7 | 0.0 | 0.0 | 0.00 | 0.00 | 0.00 | ||
| 20260505022804 | 60 | 7 | 0.0 | 0.0 | 0.00 | 0.00 | 0.00 | ||
| 20260505022304 | 60 | 7 | 0.0 | 0.0 | 0.00 | 0.00 | 0.00 | ||
| 20260505021803 | 60 | 7 | 0.0 | 0.0 | 0.00 | 0.00 | 0.00 | ||
| 20260505021300 | 60 | 7 | 0.0 | 0.0 | 0.00 | 0.00 | 0.00 | ||
| 20260505020801 | 60 | 7 | 0.0 | 0.0 | 0.00 | 0.00 | 0.00 | ||
| 20260505020401 | 60 | 7 | 0.0 | 0.0 | 0.00 | 0.00 | 0.00 | ||
| 20260505020300 | 60 | 7 | 0.0 | 0.0 | 0.00 | 0.00 | 0.00 | ||
| 20260505015801 | 60 | 7 | 0.0 | 0.0 | 0.00 | 0.00 | 0.00 | ||
| 20260505015421 | 61 | 7 | 0.0 | 0.0 | 0.00 | 0.00 | 0.00 | ||
| 20260505015259 | 61 | 7 | 0.0 | 0.0 | 0.00 | 0.00 | 0.00 | ||
| 20260505014800 | 62 | 7 | 0.0 | 0.0 | 0.00 | 0.00 | 0.00 | ||
| 20260505014259 | 62 | 7 | 0.0 | 0.0 | 0.00 | 0.00 | 0.00 | ||
| 20260505013800 | 62 | 7 | 0.0 | 0.0 | 0.00 | 0.00 | 0.00 | ||
| 20260505011759 | 63 | 7 | 0.0 | 0.0 | 0.00 | 0.00 | 0.00 | ||
| 20260505011257 | 63 | 7 | 0.0 | 0.0 | 0.00 | 0.00 | 0.00 | ||
| 20260505010758 | 63 | 7 | 0.0 | 0.0 | 0.00 | 0.00 | 0.00 | ||
| 20260505010256 | 63 | 7 | 0.0 | 0.0 | 0.00 | 0.00 | 0.00 | ||
| 20260505005357 | 65 | 7 | 0.0 | 0.0 | 0.00 | 0.00 | 0.00 | ||
| 20260505005256 | 65 | 7 | 0.0 | 0.0 | 0.00 | 0.00 | 0.00 | ||
| 20260505004448 | 65 | 7 | 0.0 | 0.0 | 0.00 | 0.00 | 0.00 | ||
| 20260505004255 | 65 | 7 | 0.0 | 0.0 | 0.00 | 0.00 | 0.00 | ||
| 20260505002756 | 66 | 7 | 0.0 | 0.0 | 0.00 | 0.00 | 0.00 | ||
| 20260505001756 | 67 | 7 | 0.0 | 0.0 | 0.00 | 0.00 | 0.00 | ||
| 20260505000754 | 68 | 274 | 0.0 | 0.0 | 0.00 | 0.00 | 0.00 | ||
| 20260505000252 | 68 | 274 | 0.0 | 0.0 | 0.00 | 0.00 | 0.00 | ||
| 20260504235754 | 68 | 274 | 0.0 | 0.0 | 0.00 | 0.00 | 0.00 | ||
| 20260504235252 | 68 | 302 | 1.0 | 2.0 | 0.00 | 0.00 | 0.00 | ||
| 20260504234753 | 69 | 252 | 0.0 | 0.0 | 0.00 | 0.00 | 0.00 | ||
| 20260504234251 | 69 | 333 | 0.0 | 0.0 | 0.00 | 0.00 | 0.00 | ||
| 20260504233901 | 69 | 20 | 1.0 | 0.0 | 0.00 | 0.00 | 0.00 | ||
| 20260504233753 | 69 | 7 | 1.0 | 1.0 | 0.00 | 0.00 | 0.00 | ||
| 20260504233251 | 69 | 20 | 1.0 | 0.0 | 0.00 | 0.00 | 0.00 | ||
| 20260504232250 | 69 | 284 | 3.0 | 4.0 | 0.00 | 0.00 | 0.00 | ||
| 20260504231752 | 70 | 345 | 3.0 | 2.0 | 0.00 | 0.00 | 0.00 | ||
| 20260504231001 | 71 | 243 | 2.0 | 0.0 | 0.00 | 0.00 | 0.00 | ||
| 20260504230751 | 71 | 243 | 2.0 | 0.0 | 0.00 | 0.00 | 0.00 | ||
| 20260504230249 | 71 | 356 | 1.0 | 4.0 | 0.00 | 0.00 | 0.00 | ||
| 20260504225751 | 71 | 294 | 0.0 | 6.0 | 0.00 | 0.00 | 0.00 | ||
| 20260504225249 | 71 | 273 | 6.0 | 6.0 | 0.00 | 0.00 | 0.00 | ||
| 20260504224750 | 71 | 319 | 2.0 | 3.0 | 0.00 | 0.00 | 0.00 | ||
| 20260504224248 | 71 | 41 | 3.0 | 2.0 | 0.00 | 0.00 | 0.00 | ||
| 20260504223750 | 72 | 266 | 1.0 | 1.0 | 0.00 | 0.00 | 0.00 | ||
| 20260504223248 | 72 | 134 | 3.0 | 5.0 | 0.00 | 0.00 | 0.00 | ||
| 20260504222749 | 72 | 84 | 1.0 | 4.0 | 0.00 | 0.00 | 0.00 | ||
| 20260504222246 | 71 | 335 | 3.0 | 3.0 | 0.00 | 0.00 | 0.00 | ||
| 20260504221747 | 72 | 139 | 4.0 | 6.0 | 0.00 | 0.00 | 0.00 | ||
| 20260504220747 | 73 | 32 | 3.0 | 2.0 | 0.00 | 0.00 | 0.00 | ||
| 20260504215746 | 72 | 25 | 2.0 | 0.0 | 0.00 | 0.00 | 0.00 | ||
| 20260504215244 | 73 | 336 | 2.0 | 1.0 | 0.00 | 0.00 | 0.00 | ||
| 20260504214244 | 73 | 39 | 3.0 | 0.0 | 0.00 | 0.00 | 0.00 | ||
| 20260504213745 | 73 | 339 | 4.0 | 6.0 | 0.00 | 0.00 | 0.00 | ||
| 20260504213243 | 73 | 271 | 4.0 | 0.0 | 0.00 | 0.00 | 0.00 | ||
| 20260504212744 | 73 | 134 | 5.0 | 4.0 | 0.00 | 0.00 | 0.00 | ||
| 20260504212243 | 73 | 77 | 2.0 | 2.0 | 0.00 | 0.00 | 0.00 | ||
| 20260504211744 | 73 | 25 | 3.0 | 2.0 | 0.00 | 0.00 | 0.00 | ||
| 20260504211242 | 73 | 108 | 5.0 | 4.0 | 0.00 | 0.00 | 0.00 | ||
| 20260504210743 | 73 | 129 | 2.0 | 3.0 | 0.00 | 0.00 | 0.00 | ||
| 20260504210242 | 73 | 25 | 2.0 | 3.0 | 0.00 | 0.00 | 0.00 | ||
| 20260504205743 | 73 | 113 | 4.0 | 2.0 | 0.00 | 0.00 | 0.00 | ||
| 20260504205241 | 73 | 124 | 6.0 | 5.0 | 0.00 | 0.00 | 0.00 | ||
| 20260504204241 | 73 | 128 | 6.0 | 9.0 | 0.00 | 0.00 | 0.00 | ||
| 20260504203742 | 74 | 307 | 5.0 | 6.0 | 0.00 | 0.00 | 0.00 | ||
| 20260504201741 | 74 | 79 | 5.0 | 5.0 | 0.00 | 0.00 | 0.00 | ||
| 20260504195740 | 74 | 132 | 3.0 | 9.0 | 0.00 | 0.00 | 0.00 | ||
| 20260504193739 | 76 | 98 | 3.0 | 3.0 | 0.00 | 0.00 | 0.00 | ||
| 20260504191234 | 76 | 90 | 3.0 | 5.0 | 0.00 | 0.00 | 0.00 | ||
| 20260504190736 | 75 | 118 | 7.0 | 9.0 | 0.00 | 0.00 | 0.00 | ||
| 20260504185735 | 75 | 301 | 9.0 | 8.0 | 0.00 | 0.00 | 0.00 | ||
| 20260504182233 | 78 | 305 | 3.0 | 5.0 | 0.00 | 0.00 | 0.00 | ||
| 20260504181734 | 76 | 135 | 6.0 | 2.0 | 0.00 | 0.00 | 0.00 | ||
| 20260504174229 | 78 | 127 | 3.0 | 4.0 | 0.00 | 0.00 | 0.00 | ||
| 20260504173730 | 79 | 179 | 3.0 | 1.0 | 0.00 | 0.00 | 0.00 | ||
| 20260504173228 | 79 | 41 | 4.0 | 1.0 | 0.00 | 0.00 | 0.00 | ||
| 20260504172730 | 77 | 172 | 4.0 | 0.0 | 0.00 | 0.00 | 0.00 | ||
| 20260504171729 | 78 | 128 | 1.0 | 0.0 | 0.00 | 0.00 | 0.00 | ||
| 20260504170729 | 78 | 52 | 1.0 | 0.0 | 0.00 | 0.00 | 0.00 | ||
| 20260504170227 | 77 | 128 | 6.0 | 3.0 | 0.00 | 0.00 | 0.00 |